User: anonymous   Login
Location: Auckland
(36.8670°S, 174.7670°E)
Time: 05:17:33
(UTC+13:00)
Language:

Cosmos 2219 Rocket - Orbit

View from above orbital plane
View from above orbital plane
View from above satellite
View from above satellite

Ground track
Ground track

The orbit data is extracted from the following two-line orbital elements,

1 22220U 92076B   19349.18420910  .00000030  00000-0  39020-4 0  9994
2 22220  71.0006 301.5836 0014443 316.8557  54.4835 14.16450813399778
Epoch (UTC): 15 December 2019 04:25:15
Eccentricity: 0.0014443
inclination: 71.0006°
perigee height: 827 km
apogee height: 848 km
right ascension of ascending node: 301.5836°
argument of perigee: 316.8557°
revolutions per day: 14.16450813
mean anomaly at epoch: 54.4835°
orbit number at epoch: 39977

The dashed part of the orbit path shows where the satellite is in the earth's shadow,  

DLR